Regional Weather Roundup
Issued by NWS

Home | Current Version | Previous Version | Text Only | Print | Product List | Glossary Off
Versions: 1 2 3 4 5 6 7 8 9 10 11 12 13 14 15 16 17 18 19 20 21 22 23 24 25 26 27 28 29 30 31 32 33 34 35 36 37 38 39 40 41 42 43 44 45 46 47 48 49 50

000
ASUS43 KOAX 281702
RWRNE

WEATHER ROUNDUP FOR NEBRASKA
NATIONAL WEATHER SERVICE OMAHA NE
1200 PM CDT TUE MAR 28 2017

NOTES: SATELLITE DATA IS BEING USED TO AUGMENT CLOUD COVER ABOVE
       12000 FEET.
       "FAIR" INDICATES FEW OR NO CLOUDS BELOW 12,000 FEET WITH NO
       SIGNIFICANT WEATHER AND/OR OBSTRUCTIONS TO VISIBILITY.

  * THESE STATIONS DO NOT REPORT WEATHER SUCH AS RAIN...SNOW OR FOG.

NEZ001>004-019>022-054>056-281800-
NEBRASKA PANHANDLE

CITY           SKY/WX    TMP DP  RH WIND       PRES   REMARKS
SCOTTSBLUFF    LGT RAIN  46  44  93 E17       29.93R
ALLIANCE       LGT RAIN  45  43  93 E16       29.95F FOG
CHADRON        LGT RAIN  45  41  86 NE13      30.01S
KIMBALL        RAIN      44  44 100 E8        29.90F
SIDNEY         LGT RAIN  44  42  93 E17G24    29.91S FOG
$$

NEZ057>060-069>072-079>082-281800-
SOUTHWEST NEBRASKA

CITY           SKY/WX    TMP DP  RH WIND       PRES   REMARKS
NORTH PLATTE   LGT RAIN  45  43  93 E13       30.02S FOG
IMPERIAL       LGT RAIN  45  43  93 E15       29.95F
LEXINGTON      CLOUDY    48  43  81 SE9       30.03F
MCCOOK         CLOUDY    46  45  96 E14       29.98F FOG
OGALLALA       LGT RAIN  46  44  95 E13       29.98S
$$

NEZ005>010-023>029-035>040-094-281800-
NORTH CENTRAL NEBRASKA

CITY           SKY/WX    TMP DP  RH WIND       PRES   REMARKS
VALENTINE      CLOUDY    47  43  86 E10       30.06S
AINSWORTH      CLOUDY    47  45  94 E7        30.06S
BROKEN BOW     CLOUDY    45  42  89 SE7       30.05R
O`NEILL        CLOUDY    48  43  82 NE3       30.11S
ORD            CLOUDY    50  41  71 E7        30.06F
THEDFORD       CLOUDY    44  43  93 SE10      30.07R
$$

NEZ041-046>049-061>064-073>077-083>087-281800-
SOUTH CENTRAL NEBRASKA

CITY           SKY/WX    TMP DP  RH WIND       PRES   REMARKS
GRAND ISLAND   CLOUDY    48  42  80 E13       30.08S
AURORA         CLOUDY    46  45  95 E9        30.08F
HASTINGS       CLOUDY    51  42  71 E13       30.06F
HEBRON         PTSUNNY   51  42  70 E12       30.06F
HOLDREGE       CLOUDY    50  42  72 E13       30.02S
KEARNEY *      CLOUDY    52  41  66 E12       30.04F
YORK           CLOUDY    46  41  81 E9        30.10R
$$

NEZ011>018-030>034-042>045-281800-
NORTHEAST NEBRASKA

CITY           SKY/WX    TMP DP  RH WIND       PRES   REMARKS
NORFOLK        CLOUDY    49  38  65 SE6       30.12R
ALBION         CLOUDY    47  41  80 SE7       30.10F
FREMONT        CLOUDY    49  40  72 E7        30.13S
TEKAMAH        CLOUDY    50  41  71 SE8       30.14R
WAYNE          PTSUNNY   53  42  66 SE9       30.13R
$$

NEZ050>053-065>068-078-088>093-281800-
SOUTHEAST NEBRASKA

CITY           SKY/WX    TMP DP  RH WIND       PRES   REMARKS
LINCOLN        CLOUDY    49  40  71 E8        30.12S
OMAHA EPPLEY   CLOUDY    49  40  71 E8        30.13R
BEATRICE       CLOUDY    50  42  73 E9        30.09F
FALLS CITY     CLOUDY    50  42  74 E9        30.10S
NEBRASKA CITY  CLOUDY    48  38  68 NE6       30.11S
PLATTSMOUTH    CLOUDY    47  38  68 E9        30.12F
$$

NEZ044-045-051>053-067-281800-
OMAHA AREA

CITY           SKY/WX    TMP DP  RH WIND       PRES   REMARKS
OMAHA EPPLEY   CLOUDY    49  40  71 E8        30.13R
FREMONT        CLOUDY    49  40  72 E7        30.13S
MILLARD        CLOUDY    49  42  75 E5        30.13S
OFFUTT AFB     CLOUDY    48  41  76 NE8       30.13R
PLATTSMOUTH    CLOUDY    47  38  68 E9        30.12F
WAHOO          CLOUDY    47  41  77 E7        30.12S
$$




USA.gov is the U.S. government's official web portal to all federal, state and local government web resources and services.